Location: D�derode
(51.8092°N, 10.1065°E)
Time: 21:29:38
(UTC+00:00)

SL-16 R/B - Pass Details

Date: 01 December 2020
Orbit: 842 x 846 km, 71.0° (Epoch: 24 January)

Event Time Altitude Azimuth Distance (km) Brightness Sun altitude
Rises 17:51:33 0° 315° (NW) 3,412 5.9 -23.6°
Reaches altitude 10° 17:56:21 10° 351° (N) 2,477 4.7 -24.3°
Maximum altitude 17:57:49 11° 6° (N) 2,411 4.5 -24.5°
Enters shadow 17:58:10 11° 10° (N) 2,415 4.4 -24.6°
